Simultaneous Nadir Overpasses (SNOs) Predictions

Prediction of SNOs between FY3D and AQUA Satellite Orbit:

Table of predicted SNOs for the next 14.0 days since TLE Epoch: 5/7/2022
Index Date (FY3D) Time (FY3D) Lat,Lon (FY3D) SZA (FY3D ) Date (AQUA) Time (AQUA) Lat,Lon (AQUA) SZA (AQUA ) Distance(km) Time Diff (sec)
1 05/08/2022 13:39:50 -75.00, 146.90 122.13 05/08/2022 13:40:14 -75.01, 146.86 122.13 1.37 24
2 05/08/2022 14:30:13 73.89, -42.83 56.67 05/08/2022 14:29:19 73.88, -42.78 56.66 1.86 54
3 05/11/2022 04:18:19 -80.07, -99.31 116.06 05/11/2022 04:19:33 -80.36, -98.42 115.95 36.04 74
4 05/11/2022 05:06:52 74.80, 95.72 56.95 05/11/2022 05:06:51 74.80, 95.74 56.95 0.47 1
5 05/11/2022 05:53:08 -60.49, -77.07 136.66 05/11/2022 05:51:55 -60.33, -78.15 137.01 61.81 73
6 05/13/2022 19:43:33 75.78,-126.32 57.39 05/13/2022 19:44:24 75.77,-126.24 57.37 2.40 51
7 05/13/2022 20:33:48 -74.32, 45.26 124.23 05/13/2022 20:33:21 -74.32, 45.26 124.22 0.30 27
8 05/16/2022 11:10:24 -75.13,-176.03 123.97 05/16/2022 11:10:49 -75.13,-176.08 123.97 1.65 25
9 05/16/2022 12:00:47 74.04, -5.75 54.84 05/16/2022 11:59:54 74.03, -5.71 54.84 1.44 53
10 05/19/2022 01:48:29 -79.44, -55.85 119.03 05/19/2022 01:49:43 -79.66, -55.06 118.94 28.80 74
11 05/19/2022 02:37:29 75.10, 132.31 55.41 05/19/2022 02:37:27 75.09, 132.40 55.40 2.74 2



Historial Predications of SNOs between FY3D and AQUA
